STARLINK-36247

Last updated on Sun Apr 12 2026 00:02:07 GMT+0000 (Coordinated Universal Time)

1 68245U 26054P 26101.50002315 -.01826238 00000+0 -12649-1 0 9992 2 68245 53.1587 148.1528 0000948 81.6099 305.7522 15.76884521 5229
UTC large
Height (km)
Speed (km/s)
/
Latitude / Longitude
Inclination (degrees)
Orbital Period (minutes)
Azimuth
Elevation
Range (km)
Doppler Factor

Next 0 passes for location: London (51.5072 / 0.1276)

Sorry there are no passes over London.
STARLINK-36247